It's Monday,
June 24th, 2019
User not logged in
[Run Race Header Image][Run Race logo]
  
Race webcasting is attempted by race directors and their support staff. Please remember that conditions under which they're working may make it difficult to post timely webcast updates... your interest and patience is appreciated!
Race Information
Race Name:Kettle 100 Endurance Runs - 2017
Location:LaGrange
State:Wisconsin, United States
 button: button: Webcast Autoplay
Event Information
Name of Event:Kettle 100m solo
Distance:100.00
Measurement:Miles
Date:Saturday June 3rd, 2017
button: Assign Numbers 

Event Information
Name of Event:Kettle 100k solo
Distance:100.00
Measurement:Kilometers
Date:Saturday June 3rd, 2017
button: Assign Numbers  
Checkpoint:Emma Carlin Outbound
Distance:15.7 Miles
Gun Start Time:Saturday June 3rd, 2017 6:02:18.49 am
Calculate Chip Start Time:< not set >
Y or N... Calculate splits based upon participant chip start time?
Allow Early Chip Start Time:< not set >
Y or N... Allow participants a chip start time prior to gun start?
Pos Race
Number
NameAgeSexTimePace 
1487Cory Logsdon29M1:51:00.97:04.3Sat Jun 3rd, 2017 7:53:19 am
2511Mason Grundy23M1:51:02.17:04.3Sat Jun 3rd, 2017 7:53:20 am
3425Jordan LaFreniere34M1:53:12.27:12.6Sat Jun 3rd, 2017 7:55:30 am
4497Jacob Pellmann28M2:03:14.67:51.0Sat Jun 3rd, 2017 8:05:33 am
5416Walt Jedzejec36M2:04:18.67:55.1Sat Jun 3rd, 2017 8:06:37 am
6445Chris Farnum20M2:07:35.38:07.6Sat Jun 3rd, 2017 8:09:53 am
7446PATRICK CAMPBELL57M2:08:51.78:12.5Sat Jun 3rd, 2017 8:11:10 am
8483Dan Riefenberg35M2:08:52.08:12.5Sat Jun 3rd, 2017 8:11:10 am
9470Blake Trotter39M2:09:29.48:14.9Sat Jun 3rd, 2017 8:11:47 am
10459Ross Salinas36M2:12:20.28:25.7Sat Jun 3rd, 2017 8:14:38 am
11486Mika Thewes26F2:14:52.18:35.4Sat Jun 3rd, 2017 8:17:10 am
12515David Curtin42M2:15:56.88:39.5Sat Jun 3rd, 2017 8:18:15 am
13494Frank Alessandrini29M2:18:10.38:48.0Sat Jun 3rd, 2017 8:20:28 am
14525Daniel Goeckermann36M2:18:20.28:48.7Sat Jun 3rd, 2017 8:20:38 am
15492Vikash Malik34M2:18:51.98:50.7Sat Jun 3rd, 2017 8:21:10 am
16510Henry Southgate36M2:18:58.18:51.1Sat Jun 3rd, 2017 8:21:16 am
17520Ray Liberatore29M2:20:19.38:56.3Sat Jun 3rd, 2017 8:22:37 am
18491Andrew Owings41M2:20:44.38:57.9Sat Jun 3rd, 2017 8:23:02 am
19503Yanzi Liu38F2:26:20.69:19.3Sat Jun 3rd, 2017 8:28:39 am
20499Terry Jarrell56M2:26:21.69:19.3Sat Jun 3rd, 2017 8:28:40 am
21465Phil Strong37M2:26:22.99:19.4Sat Jun 3rd, 2017 8:28:41 am
22442Colleen MacDonald34F2:26:30.09:19.9Sat Jun 3rd, 2017 8:28:48 am
23480Avi Janssen46M2:27:47.99:24.8Sat Jun 3rd, 2017 8:30:06 am
24460Jeffrey Bruzek42M2:27:49.99:25.0Sat Jun 3rd, 2017 8:30:08 am
25490Brad Whitson53M2:30:29.39:35.1Sat Jun 3rd, 2017 8:32:47 am
26468Mark Martinsen53M2:32:05.69:41.2Sat Jun 3rd, 2017 8:34:24 am
27518Matthew Condron50M2:32:06.89:41.3Sat Jun 3rd, 2017 8:34:25 am
28455Heidi Hasapopoulos37F2:35:21.59:53.7Sat Jun 3rd, 2017 8:37:39 am
29496Magdalena Casper-Shipp31F2:36:50.19:59.4Sat Jun 3rd, 2017 8:39:08 am
30430ronghui wang49M2:38:57.510:07.5Sat Jun 3rd, 2017 8:41:15 am
31420Ray Johnson38M2:39:40.210:10.2Sat Jun 3rd, 2017 8:41:58 am
32522Michael Younglove57M2:39:42.310:10.3Sat Jun 3rd, 2017 8:42:00 am
33495Michael Krattley53M2:39:43.110:10.4Sat Jun 3rd, 2017 8:42:01 am
34437Marta Borkowska39F2:39:44.110:10.4Sat Jun 3rd, 2017 8:42:02 am
35422Sean Wyatt45M2:40:49.710:14.6Sat Jun 3rd, 2017 8:43:08 am
36457Dan McArdle33M2:40:53.210:14.9Sat Jun 3rd, 2017 8:43:11 am
37501William Hutchinson47M2:42:12.410:19.9Sat Jun 3rd, 2017 8:44:30 am
38493Jason Krezinski44M2:42:50.810:22.3Sat Jun 3rd, 2017 8:45:09 am
39436Michael Wingertsahn28M2:43:25.110:24.5Sat Jun 3rd, 2017 8:45:43 am
40475Elizabeth Coll54F2:43:53.810:26.4Sat Jun 3rd, 2017 8:46:12 am
41432Rick Sperko46M2:43:57.010:26.6Sat Jun 3rd, 2017 8:46:15 am
42464Stephen Strawn34M2:46:10.010:35.0Sat Jun 3rd, 2017 8:48:28 am
43523Paul Shimondle65M2:46:38.310:36.8Sat Jun 3rd, 2017 8:48:56 am
44462James Feeny39M2:46:39.610:36.9Sat Jun 3rd, 2017 8:48:58 am
45419Adam Stoddard44M2:47:15.510:39.2Sat Jun 3rd, 2017 8:49:33 am
46431Ezequiel Fernandez42M2:47:28.010:40.0Sat Jun 3rd, 2017 8:49:46 am
47434Jing Geng51M2:47:47.010:41.2Sat Jun 3rd, 2017 8:50:05 am
48467Rob Goeckermann38M2:50:08.110:50.2Sat Jun 3rd, 2017 8:52:26 am
49417Dan Hibbard46M2:50:09.310:50.3Sat Jun 3rd, 2017 8:52:27 am
50438Jason Jeffers44M2:50:09.510:50.3Sat Jun 3rd, 2017 8:52:28 am
51458Kathy Muehlbauer43F2:50:55.210:53.2Sat Jun 3rd, 2017 8:53:13 am
52456Rob Schmitter51M2:50:59.310:53.5Sat Jun 3rd, 2017 8:53:17 am
53505Christopher Tebeau46M2:51:01.310:53.6Sat Jun 3rd, 2017 8:53:19 am
54401Thomas Owenby38M2:51:05.610:53.9Sat Jun 3rd, 2017 8:53:24 am
55498DAVID BITNER40M2:51:08.110:54.0Sat Jun 3rd, 2017 8:53:26 am
56453Jaime Hardgrove37F2:51:37.110:55.9Sat Jun 3rd, 2017 8:53:55 am
57526Brandon Becker40M2:51:38.110:55.9Sat Jun 3rd, 2017 8:53:56 am
58474Juli Aistars58F2:57:16.311:17.5Sat Jun 3rd, 2017 8:59:34 am
59516Tony Cesario53M2:58:14.711:21.2Sat Jun 3rd, 2017 9:00:33 am
60488Lucy Burke42F2:58:16.611:21.3Sat Jun 3rd, 2017 9:00:35 am
61452William Jackson54M2:58:38.311:22.7Sat Jun 3rd, 2017 9:00:56 am
62449Ric Angara46M2:58:41.411:22.9Sat Jun 3rd, 2017 9:00:59 am
63471Sarah Hauge38F3:00:51.711:31.2Sat Jun 3rd, 2017 9:03:10 am
64504Josh Stebbins30M3:01:05.911:32.1Sat Jun 3rd, 2017 9:03:24 am
65435Jen Birkner46F3:01:46.111:34.7Sat Jun 3rd, 2017 9:04:04 am
66423Thomas Hope47M3:03:24.911:41.0Sat Jun 3rd, 2017 9:05:43 am
67519Brenda Bland57F3:04:14.911:44.1Sat Jun 3rd, 2017 9:06:33 am
68489Jim Street55M3:04:28.611:45.0Sat Jun 3rd, 2017 9:06:47 am
69402jon hendren55M3:05:05.311:47.3Sat Jun 3rd, 2017 9:07:23 am
70400Nicole Pence31F3:05:07.411:47.5Sat Jun 3rd, 2017 9:07:25 am
71426Bob Pilmer59M3:06:27.511:52.6Sat Jun 3rd, 2017 9:08:45 am
72500Irene Kok46F3:07:09.411:55.2Sat Jun 3rd, 2017 9:09:27 am
73415Trudi Schoening38F3:07:11.311:55.4Sat Jun 3rd, 2017 9:09:29 am
74461Liz Baumgardt36F3:09:38.212:04.7Sat Jun 3rd, 2017 9:11:56 am
75405Lauro Perez42M3:09:45.812:05.2Sat Jun 3rd, 2017 9:12:04 am
76440Andy Nordeen59M3:09:46.112:05.2Sat Jun 3rd, 2017 9:12:04 am
77481Kirsten Pieper46F3:11:02.412:10.1Sat Jun 3rd, 2017 9:13:20 am
78439Amanda Laughead44F3:12:07.712:14.3Sat Jun 3rd, 2017 9:14:26 am
79485Gail Zielinski49F3:13:02.212:17.7Sat Jun 3rd, 2017 9:15:20 am
80404Ken Hannah43M3:15:11.512:26.0Sat Jun 3rd, 2017 9:17:30 am
81408Lee OKSIUTA36M3:15:14.212:26.1Sat Jun 3rd, 2017 9:17:32 am
82429Tony Baker49M3:16:27.012:30.8Sat Jun 3rd, 2017 9:18:45 am
83413Katie Zopf38F3:16:53.112:32.4Sat Jun 3rd, 2017 9:19:11 am
84447Andrea Odrzywolski44F3:16:54.412:32.5Sat Jun 3rd, 2017 9:19:12 am
85441Mark Kaczmarek60M3:16:59.612:32.8Sat Jun 3rd, 2017 9:19:18 am
86524Robert Fredenhagen26M3:17:37.212:35.2Sat Jun 3rd, 2017 9:19:55 am
87403Tom Burrell46M3:17:42.312:35.6Sat Jun 3rd, 2017 9:20:00 am
88517Andrea Hutchins40F3:17:43.012:35.6Sat Jun 3rd, 2017 9:20:01 am
89507Tim Hanson46M3:17:46.812:35.8Sat Jun 3rd, 2017 9:20:05 am
90506jason kumlien47M3:17:47.512:35.9Sat Jun 3rd, 2017 9:20:05 am
91514Dennis Strenk45M3:21:25.012:49.7Sat Jun 3rd, 2017 9:23:43 am
92454Richard Albanese44M3:21:42.912:50.9Sat Jun 3rd, 2017 9:24:01 am
93512Steven Nguyen27M3:24:18.513:00.8Sat Jun 3rd, 2017 9:26:36 am
94477Linda Britz47F3:27:31.613:13.1Sat Jun 3rd, 2017 9:29:50 am
95479Alex Fox30M3:29:29.813:20.6Sat Jun 3rd, 2017 9:31:48 am
96476Wayne Nelson51M3:29:32.513:20.8Sat Jun 3rd, 2017 9:31:51 am
97466Tiffany Campbell44F3:35:46.313:44.6Sat Jun 3rd, 2017 9:38:04 am
98532Nelson Zacarias46M3:35:47.413:44.7Sat Jun 3rd, 2017 9:38:05 am
99410Jake Winder29M3:38:23.713:54.6Sat Jun 3rd, 2017 9:40:42 am
100473Stephen Bedrin40M3:39:03.513:57.2Sat Jun 3rd, 2017 9:41:22 am
101450Betsy Rogers53F3:39:08.613:57.5Sat Jun 3rd, 2017 9:41:27 am
102412Brian Smock50M3:41:21.014:05.9Sat Jun 3rd, 2017 9:43:39 am
103411Susan Smock39F3:41:21.114:05.9Sat Jun 3rd, 2017 9:43:39 am
104508Gladys Najar49F4:17:31.116:24.1Sat Jun 3rd, 2017 10:19:49 am

Event Information
Name of Event:Kettle 100 relay
Distance:100.00
Measurement:Miles
Date:Saturday June 3rd, 2017
button: Assign Numbers 

Event Information
Name of Event:Kettle 50 km solo
Distance:50.00
Measurement:Kilometers
Date:Saturday June 3rd, 2017
button: Assign Numbers 

Event Information
Name of Event:Kettle 38 night fun run
Distance:38.00
Measurement:Miles
Date:Saturday June 3rd, 2017
button: Assign Numbers 
2004-2019 : All rights reserved
Terms and Conditions